Berlin Schoenefeld, Germany

03:21 AM CEST am 23. Mai 2017 (GMT +0200)
Schonefeld

Wetter Verlauf für EDDB - März, 2017

Change the Weather History Date:

Montag, März 20, 2017

  Actual Average Record
Temperature  
mittlereTemperatur 48 °F -  
Max. Temperatur 57 °F - - ()
Min.Temperatur 40 °F - - ()
Degree Days  
Heizgradtage 16    
Moisture  
Taupunkt 47 °F    
Average Humidity 83    
Maximum Humidity 94    
Minimum Humidity 67    
Niederschlag  
Niederschlag 0.02 inch - - ()
Luftdruck in Meereshöhe  
Luftdruck in Meereshöhe 29.67 inch    
Wind  
Windgeschwindigkeit 14 mph ()    
Max. Windgeschwindigkeit 20 mph    
Max Gust Speed -    
Sichtweite 6.2 Meilen    
Ereignisse Regen    
T = Trace of Precipitation, MM = Missing Value Source: Averaged Metar Reports

Daily Weather History Graph

Daily Weather History Graph

Search for Another Location

Airport or City:

Trip Planner

Search our weather history database for the weather conditions in past years. The results will help you decide how hot, cold, wet, or windy it might be!

Date:

Astronomie

Mar. 20, 2017 Aufgang Untergang
Genaue Zeit 06:08 CET 18:19 CET
Bürgerliche Dämmerung 05:34 CET 18:53 CET
Nautische Dämmerung 04:54 CET 19:33 CET
Astronomische Dämmerung 04:12 CET 20:15 CET
Mond 01:25 CET (3/20) 10:15 CET (3/20)
Länge des sichtbaren Lichts 13h 18m
Tageslänge
12h 10m
Drittes Viertel, 52% of the Moon is Illuminated
Mrz 20
Drittes Viertel
Mrz 20
Letztes Viertel
Mrz 28
Neu
Apr 3
Erstes Viertel
Apr 11
Vollmond

Hourly Weather History & Observations

Zeit (CET) Temp. Taupunkt Feuchtigkeit Druck Sichtweite Wind Dir Windgeschwindigkeit Böengeschwindigkeit Precip Ereignisse Wetterzustand
12:20 AM 50.0 °F 46.4 °F 87% 29.59 inch 6.2 mi West-Südwest 18.4 mph - N/A Regen Leichter Regen
12:50 AM 50.0 °F 48.2 °F 94% 29.62 inch 5.0 mi West-Südwest 18.4 mph - N/A   Leichtes Nieseln
1:00 AM 49 °F 48 °F 94% 29.62 inch 5 mi West 20.1 mph - - Regen Leichtes Nieseln
1:20 AM 50.0 °F 48.2 °F 94% 29.62 inch 3.7 mi West-Südwest 17.3 mph - N/A   Leichtes Nieseln
1:50 AM 50.0 °F 48.2 °F 94% 29.62 inch 4.3 mi West-Südwest 17.3 mph - N/A   Leichtes Nieseln
2:20 AM 50.0 °F 48.2 °F 94% 29.62 inch 4.3 mi West-Südwest 18.4 mph - N/A   Leichtes Nieseln
2:50 AM 50.0 °F 48.2 °F 94% 29.62 inch 5.0 mi West-Südwest 18.4 mph - N/A   Leichtes Nieseln
3:20 AM 50.0 °F 48.2 °F 94% 29.62 inch 5.0 mi West 18.4 mph - N/A   Leichtes Nieseln
3:50 AM 50.0 °F 46.4 °F 87% 29.62 inch 6.2 mi West-Südwest 15.0 mph - N/A   Wolkig
4:20 AM 50.0 °F 46.4 °F 87% 29.65 inch 6.2 mi West-Südwest 15.0 mph - N/A   Wolkig
4:50 AM 50.0 °F 46.4 °F 87% 29.65 inch 6.2 mi West-Südwest 18.4 mph - N/A   Wolkig
5:20 AM 50.0 °F 46.4 °F 87% 29.68 inch 6.2 mi West 16.1 mph - N/A   Leichtes Nieseln
5:50 AM 48.2 °F 46.4 °F 93% 29.68 inch 6.2 mi West-Südwest 15.0 mph - N/A   Wolkig
6:20 AM 50.0 °F 46.4 °F 87% 29.68 inch 6.2 mi West-Südwest 11.5 mph - N/A   Wolkig
6:50 AM 50.0 °F 46.4 °F 87% 29.68 inch 6.2 mi West-Südwest 11.5 mph - N/A   Wolkig
7:00 AM 49 °F 47 °F 92% 29.71 inch 9 mi West 11.2 mph - -   Teils Wolkig
7:20 AM 50.0 °F 46.4 °F 87% 29.71 inch 6.2 mi West-Südwest 10.4 mph - N/A   Wolkig
7:50 AM 50.0 °F 48.2 °F 94% 29.71 inch - Südwest 10.4 mph - N/A   Leichtes Nieseln
8:20 AM 50.0 °F 48.2 °F 94% 29.71 inch 3.1 mi Südwest 10.4 mph - N/A   Leichtes Nieseln
8:50 AM 50.0 °F 48.2 °F 94% 29.71 inch 6.2 mi Südwest 11.5 mph - N/A   Wolkig
9:20 AM 50.0 °F 48.2 °F 94% 29.71 inch 6.2 mi Südwest 11.5 mph - N/A   Wolkig
9:50 AM 50.0 °F 48.2 °F 94% 29.71 inch 6.2 mi Südwest 10.4 mph - N/A   Wolkig
10:20 AM 51.8 °F 48.2 °F 88% 29.71 inch 6.2 mi Südwest 10.4 mph - N/A   Wolkig
10:50 AM 51.8 °F 48.2 °F 88% 29.71 inch 6.2 mi West-Südwest 11.5 mph - N/A   Wolkig
11:20 AM 51.8 °F 48.2 °F 88% 29.71 inch 6.2 mi West-Südwest 17.3 mph - N/A   Leichtes Nieseln
11:50 AM 51.8 °F 48.2 °F 88% 29.71 inch 6.2 mi Südwest 12.7 mph - N/A   Leichtes Nieseln
12:20 PM 53.6 °F 48.2 °F 82% 29.71 inch 6.2 mi West-Südwest 12.7 mph - N/A   Wolkig
12:50 PM 53.6 °F 48.2 °F 82% 29.71 inch 6.2 mi Südwest 12.7 mph - N/A Regen Leichter Regen
1:00 PM 54 °F 49 °F 77% 29.73 inch 19 mi West-Südwest 15.7 mph - - Regen Leichter Regen
1:20 PM 53.6 °F 48.2 °F 82% 29.71 inch 6.2 mi Südwest 12.7 mph - N/A Regen Leichter Regen
1:50 PM 53.6 °F 48.2 °F 82% 29.71 inch 6.2 mi Südwest 12.7 mph - N/A Regen Leichter Regen
2:20 PM 53.6 °F 48.2 °F 82% 29.71 inch 6.2 mi Südwest 11.5 mph - N/A Regen Leichter Regen
2:50 PM 55.4 °F 48.2 °F 77% 29.71 inch 6.2 mi Südwest 12.7 mph - N/A   Wolkig
3:20 PM 57.2 °F 48.2 °F 72% 29.68 inch 6.2 mi West-Südwest 12.7 mph - N/A   Wolkig
3:50 PM 55.4 °F 46.4 °F 72% 29.68 inch 6.2 mi Südwest 16.1 mph - N/A   Wolkig
4:20 PM 55.4 °F 46.4 °F 72% 29.68 inch 6.2 mi Südwest 15.0 mph - N/A   Wolkig
4:50 PM 55.4 °F 46.4 °F 72% 29.68 inch 6.2 mi Südwest 12.7 mph - N/A   Wolkig
5:20 PM 53.6 °F 46.4 °F 77% 29.68 inch 6.2 mi Süd-Südwest 11.5 mph - N/A   Wolkig
5:50 PM 53.6 °F 46.4 °F 77% 29.68 inch 6.2 mi Süd-Südwest 9.2 mph - N/A   Wolkig
6:20 PM 53.6 °F 46.4 °F 77% 29.68 inch 6.2 mi Süd-Südwest 10.4 mph - N/A   Wolkig
6:50 PM 53.6 °F 46.4 °F 77% 29.68 inch 6.2 mi Süd-Südwest 10.4 mph - N/A   Wolkig
7:20 PM 53.6 °F 46.4 °F 77% 29.65 inch 6.2 mi Süd-Südwest 12.7 mph - N/A   Wolkig
7:50 PM 53.6 °F 46.4 °F 77% 29.65 inch 6.2 mi Süd-Südwest 12.7 mph - N/A   Wolkig
8:20 PM 53.6 °F 46.4 °F 77% 29.65 inch 6.2 mi Süd-Südwest 15.0 mph - N/A   Wolkig
8:50 PM 53.6 °F 44.6 °F 72% 29.65 inch 6.2 mi Süd-Südwest 12.7 mph - N/A   Wolkig
9:20 PM 53.6 °F 44.6 °F 72% 29.65 inch 6.2 mi Süd-Südwest 13.8 mph - N/A   Wolkig
9:50 PM 53.6 °F 44.6 °F 72% 29.62 inch 6.2 mi Süd-Südwest 13.8 mph - N/A   Teils Wolkig
10:20 PM 53.6 °F 44.6 °F 72% 29.62 inch 6.2 mi Süd-Südwest 16.1 mph - N/A   Wolkig
10:50 PM 53.6 °F 42.8 °F 67% 29.62 inch 6.2 mi Südwest 16.1 mph - N/A   Wolkig
11:20 PM 53.6 °F 42.8 °F 67% 29.62 inch 6.2 mi Südwest 13.8 mph - N/A   Wolkig
11:50 PM 53.6 °F 42.8 °F 67% 29.62 inch 6.2 mi Südwest 12.7 mph - N/A   Bedeckt